Location: ??
(34.9170°N, 135.5016°E)
Time: 11:50:20
(UTC+00:00)

ATLAS CENTAUR Rocket - Pass Details

Date: 29 October 2020
Orbit: 651 x 36596 km, 28.3° (Epoch: 26 November)

Event Time Altitude Azimuth Distance (km) Brightness Sun altitude
Exits shadow 19:15:40 15° 187° (S) 1,939 4.0 -25.4°
Drops below altitude 10° 19:16:46 10° 171° (S) 2,129 4.4 -25.1°
Sets 19:19:10 0° 148° (SSE) 2,946 5.5 -24.7°
